Location: Barrio Las Umbrías
(40.4173°N, 4.8685°W)
Time: 14:09:36
(UTC+00:00)

ATLAS 5 CENTAUR R/B - Pass Details

Date: 17 August 2022
Orbit: 467 x 1182 km, 63.3° (Epoch: 25 September)

Event Time Altitude Azimuth Distance (km) Brightness Sun altitude
Rises 20:08:30 0° 324° (NW) 3,231 6.5 -10.3°
Reaches altitude 10° 20:10:42 10° 324° (NW) 2,403 5.7 -10.7°
Maximum altitude 20:16:22 84° 237° (WSW) 943 2.5 -11.7°
Enters shadow 20:22:53 11° 150° (SSE) 2,766 4.4 -12.7°
